Weather History for Douglas, WY

Change the Weather History Date:

Friday, January 25, 2013

  Actual Average Record
Temperature  
Mean Temperature 38 °F 25 °F  
Max Temperature 56 °F 39 °F 56 °F (2002)
Min Temperature 20 °F 12 °F -1 °F (2009)
Degree Days  
Heating Degree Days 27 40  
Month to date heating degree days 987 1002  
Since 1 July heating degree days 3708 4091  
Cooling Degree Days 0 0  
Month to date cooling degree days 0 0  
Year to date cooling degree days 0 0  
Moisture  
Dew Point 23 °F    
Average Humidity 59    
Maximum Humidity 91    
Minimum Humidity 27    
Precipitation  
Precipitation 0.00 in 0.01 in 0.14 in (2009)
Month to date precipitation T 0.27  
Year to date precipitation T 0.27  
Sea Level Pressure  
Sea Level Pressure 30.10 in    
Wind  
Wind Speed 10 mph (West)    
Max Wind Speed 23 mph    
Max Gust Speed 28 mph    
Visibility 10 miles    
Events      
T = Trace of Precipitation, MM = Missing Value Source: NWS Daily Summary

Daily Weather History Graph

Daily Weather History Graph

Search for Another Location

Airport:

Trip Planner

Search our weather history database for the weather conditions in past years. The results will help you decide how hot, cold, wet, or windy it might be!

Date:

Astronomy

Jan. 25, 2013 Rise Set
Actual Time 7:22 AM MST 5:05 PM MST
Civil Twilight 6:51 AM MST 5:36 PM MST
Nautical Twilight 6:17 AM MST 6:10 PM MST
Astronomical Twilight 5:44 AM MST 6:44 PM MST
Moon 4:05 PM MST (1/25) 6:04 AM MST (1/25)
Length of Visible Light 10h 44m
Length of Day
9h 43m
Waxing Gibbous, 98% of the Moon is Illuminated
Jan 25
Waxing Gibbous
Jan 26
Full
Feb 3
Last Quarter
Feb 10
New
Feb 17
First Quarter

Hourly Weather History & Observations

Time (MST) Temp. Windchill Dew Point Humidity Pressure Visibility Wind Dir Wind Speed Gust Speed Precip Events Conditions
12:53 AM 26.1 °F - 23.0 °F 88% 30.11 in 10.0 mi Calm Calm - N/A   Clear
1:53 AM 27.0 °F 18.7 °F 23.0 °F 85% 30.13 in 10.0 mi North 8.1 mph - N/A   Clear
2:53 AM 23.0 °F - 18.0 °F 81% 30.14 in 10.0 mi Calm Calm - N/A   Clear
3:53 AM 24.1 °F - 19.9 °F 84% 30.13 in 10.0 mi Calm Calm - N/A   Clear
4:53 AM 19.9 °F - 17.1 °F 89% 30.14 in 10.0 mi Calm Calm - N/A   Clear
5:53 AM 25.0 °F 15.5 °F 21.0 °F 85% 30.13 in 10.0 mi SSW 9.2 mph - N/A   Clear
6:53 AM 27.0 °F 21.6 °F 21.0 °F 78% 30.16 in 10.0 mi Variable 4.6 mph - N/A   Clear
7:53 AM 27.0 °F 19.5 °F 21.0 °F 78% 30.19 in 10.0 mi WNW 6.9 mph - N/A   Clear
8:53 AM 37.9 °F 32.7 °F 27.0 °F 65% 30.16 in 10.0 mi WNW 6.9 mph - N/A   Clear
9:53 AM 45.0 °F 38.2 °F 25.0 °F 46% 30.15 in 10.0 mi WNW 15.0 mph - N/A   Clear
10:53 AM 48.9 °F - 24.1 °F 38% 30.13 in 10.0 mi WNW 11.5 mph - N/A   Clear
11:53 AM 53.1 °F - - N/A% 30.08 in 10.0 mi West 16.1 mph 25.3 mph 0.01 in   Clear
12:53 PM 54.0 °F - 23.0 °F 30% 30.06 in 10.0 mi WSW 20.7 mph 25.3 mph N/A   Clear
1:53 PM 55.0 °F - 23.0 °F 29% 30.04 in 10.0 mi West 19.6 mph - N/A   Clear
2:53 PM 54.0 °F - 23.0 °F 30% 30.04 in 10.0 mi West 17.3 mph 24.2 mph N/A   Clear
3:53 PM 52.0 °F - 23.0 °F 32% 30.06 in 10.0 mi West 18.4 mph - N/A   Clear
4:53 PM 46.0 °F 39.9 °F 24.1 °F 42% 30.11 in 10.0 mi West 13.8 mph - N/A   Clear
5:53 PM 44.1 °F 37.1 °F 25.0 °F 47% 30.10 in 10.0 mi West 15.0 mph - N/A   Clear
6:53 PM 44.1 °F 36.2 °F 25.0 °F 47% 30.09 in 10.0 mi West 18.4 mph 26.5 mph N/A   Clear
7:53 PM 42.1 °F 36.1 °F 24.1 °F 49% 30.09 in 10.0 mi WSW 10.4 mph - N/A   Clear
8:53 PM 41.0 °F 33.9 °F 24.1 °F 51% 30.05 in 10.0 mi West 12.7 mph - N/A   Clear
9:53 PM 35.1 °F 29.3 °F 21.9 °F 59% 30.04 in 10.0 mi Variable 6.9 mph - N/A   Clear
10:53 PM 37.9 °F 30.5 °F 25.0 °F 60% 30.00 in 10.0 mi West 11.5 mph - N/A   Clear
11:53 PM 37.9 °F 34.4 °F 25.0 °F 60% 29.97 in 10.0 mi West 4.6 mph - N/A   Clear